Weather History for Westerly, RI

Change the Weather History Date:

Wednesday, January 22, 2014

  Actual Average (KGON) Record (KGON)
Temperature  
Mean Temperature 12 °F -  
Max Temperature 17 °F 38 °F 55 °F (1973)
Min Temperature 8 °F 16 °F -14 °F (1961)
Degree Days  
Heating Degree Days 52    
Moisture  
Dew Point 0 °F    
Average Humidity 60    
Maximum Humidity 81    
Minimum Humidity 37    
Precipitation  
Precipitation 0.01 in - - ()
Sea Level Pressure  
Sea Level Pressure 29.75 in    
Wind  
Wind Speed 13 mph (NNW)    
Max Wind Speed 18 mph    
Max Gust Speed 29 mph    
Visibility 7 miles    
Events Snow    
Averages and records for this station are not official NWS values.
T = Trace of Precipitation, MM = Missing Value Source: NWS Daily Summary

Daily Weather History Graph

Daily Weather History Graph

Search for Another Location

Airport:

Trip Planner

Search our weather history database for the weather conditions in past years. The results will help you decide how hot, cold, wet, or windy it might be!

Date:

Astronomy

Jan. 22, 2014 Rise Set
Actual Time 7:07 AM EST 4:51 PM EST
Civil Twilight 6:37 AM EST 5:21 PM EST
Nautical Twilight 6:03 AM EST 5:54 PM EST
Astronomical Twilight 5:30 AM EST 6:27 PM EST
Moon 11:25 PM EST (1/22) 10:02 AM EST (1/22)
Length of Visible Light 10h 44m
Length of Day
9h 44m
Waning Gibbous, 65% of the Moon is Illuminated
Jan 22
Waning Gibbous
Jan 24
Last Quarter
Jan 30
New
Feb 6
First Quarter
Feb 14
Full

Hourly Weather History & Observations

Time (EST) Temp. Windchill Dew Point Humidity Pressure Visibility Wind Dir Wind Speed Gust Speed Precip Events Conditions
12:53 AM 12.9 °F -2.8 °F 7.0 °F 77% 29.75 in 7.0 mi North 15.0 mph 24.2 mph 0.00 in Snow Light Snow
1:53 AM 12.9 °F -2.2 °F 6.1 °F 74% 29.75 in 7.0 mi North 13.8 mph 24.2 mph 0.00 in Snow Light Snow
2:32 AM 12.9 °F -3.4 °F 6.1 °F 74% 29.73 in 1.8 mi North 16.1 mph 26.5 mph 0.00 in Snow Light Snow
2:39 AM 12.9 °F -3.4 °F 7.0 °F 77% 29.73 in 1.5 mi North 16.1 mph 26.5 mph 0.00 in Snow Light Snow
2:53 AM 12.0 °F -3.4 °F 7.0 °F 80% 29.73 in 1.2 mi North 13.8 mph 25.3 mph 0.00 in Snow Light Snow
3:53 AM 12.0 °F -3.4 °F 7.0 °F 80% 29.73 in 1.2 mi North 13.8 mph 24.2 mph 0.01 in Snow Light Snow
4:53 AM 10.9 °F -5.4 °F 6.1 °F 81% 29.70 in 1.0 mi North 15.0 mph 26.5 mph 0.00 in Snow Light Snow
5:53 AM 10.0 °F -5.9 °F 5.0 °F 80% 29.71 in 1.5 mi North 13.8 mph 24.2 mph 0.00 in Snow Light Snow
6:53 AM 10.0 °F -5.2 °F 5.0 °F 80% 29.71 in 1.8 mi North 12.7 mph - 0.00 in Snow Light Snow
7:05 AM 10.0 °F -5.9 °F 3.9 °F 76% 29.70 in 2.0 mi NNW 13.8 mph 23.0 mph 0.00 in Snow Light Snow
7:12 AM 10.0 °F -7.1 °F 3.9 °F 76% 29.70 in 3.0 mi North 16.1 mph 21.9 mph 0.00 in Snow Light Snow
7:53 AM 10.0 °F -5.9 °F 3.0 °F 73% 29.69 in 8.0 mi NNW 13.8 mph 23.0 mph 0.00 in   Overcast
8:53 AM 10.9 °F -3.4 °F 1.0 °F 64% 29.70 in 10.0 mi NNW 11.5 mph - N/A   Overcast
9:53 AM 9.0 °F -9.0 °F -2.9 °F 59% 29.67 in 8.0 mi NNW 17.3 mph 24.2 mph N/A   Overcast
10:53 AM 10.0 °F -6.5 °F -4.0 °F 53% 29.65 in 9.0 mi NNW 15.0 mph 28.8 mph N/A   Clear
11:53 AM 10.9 °F -7.0 °F -5.1 °F 49% 29.66 in 10.0 mi NNW 18.4 mph 26.5 mph N/A   Clear
12:53 PM 15.1 °F 1.1 °F -5.1 °F 41% 29.67 in 10.0 mi NW 12.7 mph 20.7 mph N/A   Mostly Cloudy
1:53 PM 17.1 °F 2.5 °F -4.0 °F 39% 29.70 in 10.0 mi NNW 15.0 mph - N/A   Clear
2:53 PM 17.1 °F 3.6 °F -4.0 °F 39% 29.72 in 10.0 mi NW 12.7 mph 23.0 mph N/A   Clear
3:53 PM 17.1 °F 4.3 °F -5.1 °F 37% 29.75 in 10.0 mi NW 11.5 mph - N/A   Clear
4:53 PM 15.1 °F 5.2 °F -5.1 °F 41% 29.77 in 10.0 mi NW 6.9 mph - N/A   Clear
5:53 PM 14.0 °F 5.1 °F -5.1 °F 43% 29.80 in 10.0 mi NW 5.8 mph - N/A   Clear
6:53 PM 12.0 °F 2.7 °F -6.0 °F 44% 29.82 in 10.0 mi WNW 5.8 mph - N/A   Clear
7:53 PM 10.9 °F 0.2 °F -6.0 °F 47% 29.84 in 10.0 mi NW 6.9 mph - N/A   Clear
8:53 PM 10.0 °F -2.9 °F -6.0 °F 48% 29.87 in 10.0 mi NNW 9.2 mph 18.4 mph N/A   Clear
9:53 PM 9.0 °F -0.9 °F -7.1 °F 48% 29.89 in 10.0 mi NW 5.8 mph - N/A   Clear
10:53 PM 8.1 °F -3.2 °F -7.1 °F 50% 29.91 in 10.0 mi NW 6.9 mph - N/A   Clear
11:53 PM 8.1 °F -3.2 °F -7.1 °F 50% 29.92 in 10.0 mi NW 6.9 mph - N/A   Clear